[[{"header":{"parameterUnit":"m.s-1","parameterCategory":1,"la1":30.2991,"la2":30.254,"lo1":-89.0895,"lo2":-89.0444,"dx":0.0017,"dy":0.0017,"nx":28,"ny":28,"refTime":"2022-11-21T15:00:00:Z","depth":0,"parameterNumber":2,"parameterNumberName":"U-component_of_WINDS"},"data":[0,0,0,0,0,0,0,0,0,0,0,0,0,0,0,0,0,0,0,0,0,0,0,0,0,0,0,0,0,0,0,0,0,0,0,0,0,0,0,0,0,0,0,0,0,0,0,0,0,0,0,0,0,0,0,0,0,0,-3.4953,-3.4954,0,-3.5006,-3.5007,-3.5008,-3.4911,-3.4908,-3.4904,-3.4901,-3.4958,-3.4962,-3.4967,0,0,0,0,0,0,0,0,0,0,0,0,0,-3.4769,-3.4773,-3.4953,-3.4954,-3.4954,-3.5006,-3.5007,-3.5008,-3.4911,-3.4907,-3.4903,-3.49,-3.4956,-3.4962,-3.4967,0,0,0,0,0,0,0,0,0,0,0,0,0,-3.4838,-3.4774,-3.4953,-3.4912,-3.4909,-3.5006,-3.5007,-3.5008,-3.4912,-3.4907,-3.4902,-3.4898,-3.4955,-3.4961,-3.4968,-3.5107,0,0,-3.4989,-3.4992,0,0,0,0,0,0,0,0,-3.4834,-3.4845,-3.4918,-3.4915,-3.4912,-3.4947,-3.4963,-3.5041,-3.4913,-3.4911,-3.4901,-3.4896,-3.4958,-3.4964,-3.4985,-3.511,-3.5112,-3.4989,-3.4993,-3.4996,-3.4998,0,0,0,0,0,0,0,-3.483,-3.4842,-3.4974,-3.4919,-3.4916,-3.4892,-3.4897,-3.4977,-3.4961,-3.4911,-3.4904,-3.4912,-3.4956,-3.4979,-3.4986,-3.5113,-3.4989,-3.4995,-3.4999,-3.5002,-3.5355,-3.536,0,0,0,0,0,0,-3.483,-3.4839,-3.4972,-3.4976,-3.486,-3.4899,-3.4904,-3.4941,-3.496,-3.4959,-3.4916,-3.4907,-3.497,-3.4978,-3.4987,-3.5153,-3.4996,-3.5003,-3.5007,-3.535,-3.5356,-3.5362,0,0,0,0,0,0,-3.4826,-3.4843,-3.497,-3.4905,-3.492,-3.4908,-3.4949,-3.4944,-3.4967,-3.4964,-3.4961,-3.4942,-3.4966,-3.4978,-3.5078,-3.5153,-3.5006,-3.5012,-3.5344,-3.5352,-3.5359,-3.5484,0,0,0,0,0,0,-3.4821,-3.4842,-3.4895,-3.4907,-3.4924,-3.506,-3.4954,-3.4949,-3.4979,-3.4968,-3.4988,-3.4986,-3.4963,-3.5069,-3.5085,-3.516,-3.5017,-3.5337,-3.5347,-3.5357,-3.5473,-3.5495,-3.5514,0,0,0,0,0,-3.4815,-3.4928,-3.4898,-3.4914,-3.4989,-3.5065,-3.5074,-3.5045,-3.4985,-3.5039,-3.5036,-3.4986,-3.5142,-3.508,-3.5097,-3.5176,-3.5332,-3.5344,-3.5356,-3.5464,-3.5491,-3.5514,0,0,0,0,0,0,-3.4925,-3.4929,-3.4895,-3.5016,-3.5041,-3.5048,-3.5114,-3.5074,-3.5117,-3.5105,-3.5066,-3.5072,-3.518,-3.5187,-3.5118,-3.5312,-3.5227,-3.5243,-3.5303,-3.5329,-3.5349,-3.5346,-3.5023,0,0,0,0,0,-3.4963,-3.5024,-3.5024,-3.513,-3.5144,-3.5127,-3.5159,-3.5134,-3.5158,-3.5169,-3.5173,-3.52,-3.5254,-3.5292,-3.5342,-3.5473,-3.5477,-3.5535,-3.5556,-3.5573,-3.5588,-3.5659,-3.5685,-3.5401,-3.5401,-3.5401,0,0,-3.5043,-3.5052,-3.5093,-3.5152,-3.5168,-3.5233,-3.5137,-3.5208,-3.5256,-3.518,-3.5275,-3.5279,-3.5306,-3.5423,-3.5474,-3.5432,-3.5667,-3.5588,-3.5602,-3.5608,-3.5674,-3.5701,-3.5725,-3.5409,-3.5408,-3.5407,0,0,-3.5221,-3.5234,-3.5324,-3.5342,-3.5368,-3.5356,-3.5377,-3.5391,-3.5391,-3.5486,-3.543,-3.5486,-3.5581,-3.5602,-3.5626,-3.5812,-3.5768,-3.5829,-3.5937,-3.6007,-3.6029,-3.6049,-3.6117,-3.6141,-3.5843,-3.5844,-3.5844,0,-3.5317,-3.5411,-3.5376,-3.5452,-3.548,-3.5412,-3.5504,-3.5523,-3.5564,-3.5586,-3.5537,-3.5655,-3.5668,-3.579,-3.5835,-3.5855,-3.588,-3.5828,-3.6029,-3.6048,-3.6066,-3.613,-3.6156,-3.5851,-3.585,-3.585,-3.5849,0,-3.5529,-3.5595,-3.5665,-3.5706,-3.5742,-3.5825,-3.5803,-3.5843,-3.5814,-3.5808,-3.5905,-3.5918,-3.597,-3.5997,-3.597,-3.6115,-3.6088,-3.6035,-3.5949,-3.6101,-3.6161,-3.6185,-3.5862,-3.5859,-3.5857,-3.5855,0,0,-3.5781,-3.58,-3.5826,-3.5844,-3.5867,-3.5918,-3.5998,-3.6048,-3.6084,-3.6114,-3.6182,-3.6263,-3.6214,-3.6241,-3.6216,-3.6276,-3.6425,-3.6216,-3.6216,-3.6256,-3.6586,-3.6628,-3.6657,-3.6394,-3.6399,-3.6402,-3.6585,0,-3.5959,-3.6097,-3.6067,-3.6204,-3.6265,-3.6201,-3.6271,-3.6293,-3.6289,-3.634,-3.6335,-3.6394,-3.6324,-3.634,-3.6397,-3.6395,-3.6491,-3.6381,-3.6458,-3.6461,-3.6456,-3.6688,-3.6732,-3.6904,-3.6608,-3.6612,-3.6614,0,-3.6187,-3.6225,-3.6368,-3.6381,-3.6405,-3.6469,-3.6513,-3.6562,-3.6586,-3.6578,-3.6608,-3.6571,-3.6651,-3.6563,-3.6673,-3.6599,-3.6628,-3.6632,-3.6638,-3.6646,-3.6549,-3.6704,-3.6958,-3.6985,-3.6651,-3.6648,-3.6645,0,-3.6358,-3.6445,-3.6542,-3.6559,-3.6577,-3.6623,-3.6632,-3.6651,-3.6683,-3.6721,-3.6742,-3.6789,-3.6815,-3.6853,-3.6829,-3.6767,-3.6945,-3.6854,-3.6942,-3.6943,-3.6984,-3.6982,-3.7248,-3.7,-3.6999,-3.6999,-3.6998,0,-3.6562,-3.6653,-3.662,-3.668,-3.6779,-3.6743,-3.6842,-3.6844,-3.6861,-3.692,-3.6867,-3.6924,-3.6888,-3.6943,-3.6925,-3.702,-3.7032,-3.7029,-3.7023,-3.7035,-3.7036,-3.7056,-3.7044,-3.7006,-3.7004,-3.7003,-3.7002,0,-3.6772,-3.6753,-3.6855,-3.6862,-3.6866,-3.6939,-3.6946,-3.7002,-3.6992,-3.7069,-3.7084,-3.707,-3.7132,-3.7111,-3.7177,-3.7164,-3.7286,-3.7264,-3.7279,-3.7274,-3.7363,-3.7356,-3.7653,-3.7691,-3.7416,-3.7419,-3.7421,0,-3.6905,-3.6973,-3.6987,-3.7023,-3.7036,-3.7094,-3.7127,-3.7093,-3.713,-3.7161,-3.7214,-3.727,-3.7313,-3.7414,-3.741,-3.746,-3.744,-3.7541,-3.7448,-3.7457,-3.7444,-3.7441,-3.7449,-3.756,-3.7563,-3.7566,-3.7568,0,-3.7143,-3.713,-3.7179,-3.7225,-3.7265,-3.7299,-3.7329,-3.7361,-3.7329,-3.7373,-3.7434,-3.7468,-3.7534,-3.7591,-3.7636,-3.7646,-3.7603,-3.7597,-3.762,-3.7634,-3.764,-3.764,-3.7332,-3.7591,-3.7589,-3.7587,-3.7586,-3.7585,-3.732,-3.7377,-3.7397,-3.7453,-3.7471,-3.75,-3.7553,-3.755,-3.7601,-3.7652,-3.7629,-3.7701,-3.7722,-3.7778,-3.7794,-3.7849,-3.7811,-3.7844,-3.7853,-3.7862,-3.7875,-3.763,-3.7857,-3.7856,-3.7856,-3.7855,-3.7855,0,-3.7557,-3.7566,-3.7617,-3.7661,-3.7705,-3.7658,-3.7688,-3.7729,-3.7792,-3.7815,-3.7859,-3.793,-3.7985,-3.7984,-3.8035,-3.808,-3.8062,-3.8095,-3.8093,-3.8096,-3.7905,-3.7881,-3.8109,-3.8109,-3.8109,-3.8109,-3.8109,-3.8109,-3.7686,-3.7781,-3.7771,-3.7875,-3.7883,-3.7952,-3.7974,-3.8,-3.8019,-3.81,-3.8145,-3.8144,-3.8158,-3.821,-3.8258,-3.8256,-3.8279,-3.832,-3.8312,-3.8134,-3.8109,-3.8085,-3.8062,-3.8325,-3.8325,-3.8497,-3.8499,-3.85]},{"header":{"parameterUnit":"m.s-1","parameterCategory":1,"la1":30.2991,"la2":30.254,"lo1":-89.0895,"lo2":-89.0444,"dx":0.0017,"dy":0.0017,"nx":28,"ny":28,"refTime":"2022-11-21T15:00:00:Z","depth":0,"parameterNumber":3,"parameterNumberName":"V-component_of_WINDS"},"data":[0,0,0,0,0,0,0,0,0,0,0,0,0,0,0,0,0,0,0,0,0,0,0,0,0,0,0,0,0,0,0,0,0,0,0,0,0,0,0,0,0,0,0,0,0,0,0,0,0,0,0,0,0,0,0,0,0,0,-3.836,-3.836,0,-3.8373,-3.8373,-3.8373,-3.831,-3.8308,-3.8306,-3.8304,-3.8317,-3.8319,-3.8321,0,0,0,0,0,0,0,0,0,0,0,0,0,-3.8279,-3.8281,-3.836,-3.836,-3.8361,-3.8373,-3.8373,-3.8373,-3.831,-3.8308,-3.8305,-3.8303,-3.8316,-3.8318,-3.8321,0,0,0,0,0,0,0,0,0,0,0,0,0,-3.8306,-3.8282,-3.836,-3.833,-3.8328,-3.8373,-3.8373,-3.8373,-3.831,-3.8308,-3.8305,-3.8302,-3.8315,-3.8318,-3.8321,-3.8395,0,0,-3.8331,-3.8332,0,0,0,0,0,0,0,0,-3.8304,-3.8309,-3.8335,-3.8333,-3.833,-3.8337,-3.8349,-3.8381,-3.8311,-3.8317,-3.8304,-3.8301,-3.8326,-3.8328,-3.8336,-3.8396,-3.8396,-3.8331,-3.8333,-3.8334,-3.8335,0,0,0,0,0,0,0,-3.8302,-3.8308,-3.8365,-3.8335,-3.8332,-3.8316,-3.8317,-3.8355,-3.8337,-3.8316,-3.8312,-3.8314,-3.8324,-3.8333,-3.8336,-3.8396,-3.8331,-3.8333,-3.8335,-3.8336,-3.8516,-3.8519,0,0,0,0,0,0,-3.8305,-3.8307,-3.8365,-3.8366,-3.831,-3.832,-3.832,-3.8337,-3.8336,-3.8333,-3.8316,-3.8311,-3.8329,-3.8332,-3.8336,-3.8422,-3.8334,-3.8337,-3.8339,-3.8513,-3.8516,-3.852,0,0,0,0,0,0,-3.8303,-3.8311,-3.8364,-3.8335,-3.834,-3.8324,-3.8344,-3.8339,-3.8348,-3.8336,-3.8332,-3.833,-3.8327,-3.8332,-3.8381,-3.8421,-3.8338,-3.8341,-3.8509,-3.8514,-3.8518,-3.8594,0,0,0,0,0,0,-3.8301,-3.831,-3.8339,-3.8336,-3.8342,-3.8409,-3.8346,-3.8341,-3.8354,-3.8347,-3.8347,-3.8345,-3.8325,-3.8376,-3.8384,-3.8424,-3.8343,-3.8506,-3.8511,-3.8517,-3.8588,-3.8601,-3.8612,0,0,0,0,0,-3.8299,-3.836,-3.8341,-3.8348,-3.8378,-3.8412,-3.8415,-3.8392,-3.8358,-3.8386,-3.8377,-3.8345,-3.8416,-3.8382,-3.839,-3.8431,-3.8503,-3.851,-3.8516,-3.8583,-3.8598,-3.8611,0,0,0,0,0,0,-3.8368,-3.8359,-3.8338,-3.84,-3.8407,-3.8401,-3.8436,-3.8409,-3.8426,-3.8419,-3.8389,-3.839,-3.8444,-3.8442,-3.8405,-3.8502,-3.8453,-3.8462,-3.8501,-3.8516,-3.8527,-3.8527,-3.8346,0,0,0,0,0,-3.8391,-3.842,-3.841,-3.8466,-3.8471,-3.8453,-3.8467,-3.8448,-3.8454,-3.8457,-3.8452,-3.8459,-3.8483,-3.8499,-3.852,-3.8587,-3.8586,-3.862,-3.8631,-3.8641,-3.8649,-3.8683,-3.8698,-3.8541,-3.8541,-3.8541,0,0,-3.8438,-3.8437,-3.8457,-3.848,-3.8484,-3.8514,-3.8456,-3.8491,-3.8512,-3.8462,-3.8508,-3.8505,-3.851,-3.8569,-3.8594,-3.8569,-3.8692,-3.865,-3.8657,-3.866,-3.8692,-3.8706,-3.872,-3.8546,-3.8545,-3.8544,0,0,-3.8539,-3.8542,-3.8588,-3.8592,-3.8598,-3.8585,-3.8596,-3.8594,-3.859,-3.8635,-3.8598,-3.8623,-3.8665,-3.867,-3.8678,-3.878,-3.875,-3.8788,-3.8849,-3.8883,-3.8895,-3.8906,-3.8942,-3.8955,-3.8795,-3.8795,-3.8796,0,-3.8597,-3.8642,-3.8615,-3.8652,-3.8663,-3.8618,-3.8665,-3.867,-3.8682,-3.8691,-3.8663,-3.8713,-3.8714,-3.8772,-3.8797,-3.8805,-3.8816,-3.8788,-3.8896,-3.8906,-3.8916,-3.895,-3.8963,-3.88,-3.8799,-3.8799,-3.8799,0,-3.8712,-3.8743,-3.878,-3.8793,-3.8808,-3.8849,-3.8828,-3.8846,-3.8826,-3.8816,-3.8862,-3.8861,-3.8881,-3.8893,-3.8874,-3.8949,-3.8933,-3.8901,-3.8851,-3.8936,-3.8967,-3.898,-3.8806,-3.8805,-3.8803,-3.8802,0,0,-3.8859,-3.8855,-3.8869,-3.8874,-3.8876,-3.89,-3.8938,-3.8957,-3.8973,-3.8983,-3.9014,-3.905,-3.902,-3.9029,-3.901,-3.9039,-3.9119,-3.9003,-3.9003,-3.9025,-3.9201,-3.9225,-3.924,-3.9099,-3.9102,-3.9104,-3.92,0,-3.8958,-3.9024,-3.9001,-3.9068,-3.9096,-3.9054,-3.9087,-3.9092,-3.9083,-3.9105,-3.9096,-3.9121,-3.908,-3.9085,-3.9113,-3.9104,-3.9154,-3.9096,-3.9128,-3.913,-3.9128,-3.9257,-3.9283,-3.9374,-3.9212,-3.9214,-3.9216,0,-3.9082,-3.9096,-3.9167,-3.9163,-3.9174,-3.9205,-3.9219,-3.9241,-3.9245,-3.9237,-3.9247,-3.922,-3.9257,-3.9208,-3.9258,-3.9219,-3.9231,-3.9228,-3.9231,-3.9233,-3.9178,-3.9262,-3.9402,-3.9416,-3.9235,-3.9233,-3.9232,0,-3.9182,-3.9218,-3.9265,-3.927,-3.9267,-3.9289,-3.9289,-3.929,-3.9303,-3.9316,-3.9324,-3.9341,-3.935,-3.9364,-3.9343,-3.9309,-3.9396,-3.9344,-3.939,-3.939,-3.941,-3.9409,-3.9554,-3.9418,-3.9418,-3.9417,-3.9417,0,-3.9294,-3.9339,-3.9309,-3.9338,-3.9386,-3.9358,-3.9407,-3.9402,-3.9403,-3.9429,-3.9393,-3.9419,-3.9389,-3.9412,-3.9396,-3.9439,-3.9444,-3.9438,-3.9433,-3.9441,-3.9442,-3.9448,-3.9441,-3.9421,-3.942,-3.942,-3.9419,0,-3.9414,-3.9396,-3.9444,-3.9436,-3.9436,-3.9472,-3.9465,-3.9491,-3.9479,-3.9513,-3.9519,-3.9501,-3.9526,-3.9506,-3.953,-3.9519,-3.9577,-3.9563,-3.9576,-3.9572,-3.9618,-3.9614,-3.9772,-3.9791,-3.9643,-3.9644,-3.9646,0,-3.9487,-3.9521,-3.9517,-3.9532,-3.9533,-3.9558,-3.9571,-3.9544,-3.9558,-3.9564,-3.9589,-3.9611,-3.9627,-3.9668,-3.9657,-3.9675,-3.9661,-3.9715,-3.9663,-3.967,-3.9661,-3.966,-3.9663,-3.9726,-3.9727,-3.9729,-3.973,0,-3.9619,-3.9608,-3.9627,-3.9644,-3.9659,-3.967,-3.9679,-3.9693,-3.9666,-3.9683,-3.9708,-3.972,-3.9744,-3.9766,-3.978,-3.9779,-3.975,-3.9746,-3.9757,-3.9766,-3.9772,-3.9769,-3.9604,-3.9743,-3.9741,-3.974,-3.974,-3.9739,-3.9718,-3.9745,-3.9746,-3.9768,-3.9771,-3.978,-3.9803,-3.9794,-3.9814,-3.9832,-3.9814,-3.9844,-3.9846,-3.9862,-3.9864,-3.9887,-3.9864,-3.9881,-3.9885,-3.9889,-3.9896,-3.9768,-3.9889,-3.9889,-3.9888,-3.9888,-3.9888,0,-3.9847,-3.9845,-3.9866,-3.9879,-3.9896,-3.9867,-3.9874,-3.9891,-3.9917,-3.9921,-3.9937,-3.9965,-3.9985,-3.9975,-3.9993,-4.0013,-4.0,-4.0018,-4.0016,-4.0017,-3.9915,-3.9903,-4.0028,-4.0028,-4.0028,-4.0028,-4.0028,-4.0028,-3.9917,-3.9961,-3.995,-3.9995,-3.9992,-4.0021,-4.0027,-4.0035,-4.0037,-4.007,-4.0087,-4.008,-4.0078,-4.0095,-4.0112,-4.0109,-4.0117,-4.014,-4.0132,-4.0038,-4.0024,-4.0011,-3.9999,-4.0142,-4.0142,-4.0231,-4.0232,-4.0233]}]]